Time,TemperatureF,DewpointF,PressureIn,WindDirection,WindDirectionDegrees,WindSpeedMPH,WindSpeedGustMPH,Humidity,HourlyPrecipIn,Conditions,Clouds,dailyrainin,SoftwareType,DateUTC
2013-03-04 07:31:00,28.0,21.0,29.80,NW,313,0.0,-999.0,75,-99.99,,,0.00,weatherlink.com 1.10,2013-03-04 12:31:00,
2013-03-04 07:34:00,28.0,21.0,29.80,NW,304,0.0,-999.0,75,-99.99,,,0.00,weatherlink.com 1.10,2013-03-04 12:34:00,
2013-03-04 07:49:00,28.6,21.0,29.80,NNW,338,4.0,-999.0,74,-99.99,,,0.00,weatherlink.com 1.10,2013-03-04 12:49:00,
2013-03-04 08:04:00,29.3,21.0,29.80,NW,321,7.0,-999.0,71,-99.99,,,0.00,weatherlink.com 1.10,2013-03-04 13:04:00,
2013-03-04 08:19:00,29.9,21.0,29.80,NW,306,2.0,-999.0,70,-99.99,,,0.00,weatherlink.com 1.10,2013-03-04 13:19:00,
2013-03-04 08:34:00,30.1,21.0,29.80,NNW,339,4.0,-999.0,69,-99.99,,,0.00,weatherlink.com 1.10,2013-03-04 13:34:00,
2013-03-04 08:49:00,30.2,21.0,29.80,North,355,2.0,-999.0,69,-99.99,,,0.00,weatherlink.com 1.10,2013-03-04 13:49:00,
2013-03-04 09:04:00,30.4,21.0,29.79,NNW,335,2.0,-999.0,68,-99.99,,,0.00,weatherlink.com 1.10,2013-03-04 14:04:00,
2013-03-04 09:20:00,31.1,21.0,29.78,NNW,344,7.0,-999.0,66,-99.99,,,0.00,weatherlink.com 1.10,2013-03-04 14:20:00,
2013-03-04 09:35:00,31.6,21.0,29.78,NW,306,8.0,-999.0,66,-99.99,,,0.00,weatherlink.com 1.10,2013-03-04 14:35:00,
2013-03-04 09:50:00,31.9,21.0,29.79,NW,325,10.0,-999.0,65,-99.99,,,0.00,weatherlink.com 1.10,2013-03-04 14:50:00,
2013-03-04 10:05:00,33.2,22.0,29.79,NW,309,0.0,-999.0,63,-99.99,,,0.00,weatherlink.com 1.10,2013-03-04 15:05:00,
2013-03-04 10:20:00,33.9,22.0,29.79,NNW,327,8.0,-999.0,61,-99.99,,,0.00,weatherlink.com 1.10,2013-03-04 15:20:00,
2013-03-04 10:35:00,33.9,22.0,29.79,NNW,340,7.0,-999.0,61,-99.99,,,0.00,weatherlink.com 1.10,2013-03-04 15:35:00,
2013-03-04 10:50:00,34.1,21.0,29.79,NW,311,5.0,-999.0,59,-99.99,,,0.00,weatherlink.com 1.10,2013-03-04 15:50:00,
2013-03-04 11:05:00,34.9,21.0,29.79,NNW,329,5.0,-999.0,58,-99.99,,,0.00,weatherlink.com 1.10,2013-03-04 16:05:00,
2013-03-04 11:20:00,35.7,22.0,29.78,NNW,334,4.0,-999.0,58,-99.99,,,0.00,weatherlink.com 1.10,2013-03-04 16:20:00,
2013-03-04 11:35:00,36.5,22.0,29.78,WNW,296,0.0,-999.0,57,-99.99,,,0.00,weatherlink.com 1.10,2013-03-04 16:35:00,
2013-03-04 11:51:00,37.0,23.0,29.78,NW,319,2.0,-999.0,57,-99.99,,,0.00,weatherlink.com 1.10,2013-03-04 16:51:00,
2013-03-04 12:06:00,37.1,23.0,29.78,NNW,333,6.0,-999.0,56,-99.99,,,0.00,weatherlink.com 1.10,2013-03-04 17:06:00,
2013-03-04 12:21:00,37.5,22.0,29.77,NNW,346,6.0,-999.0,54,-99.99,,,0.00,weatherlink.com 1.10,2013-03-04 17:21:00,
2013-03-04 12:36:00,38.1,23.0,29.77,NW,311,1.0,-999.0,55,-99.99,,,0.00,weatherlink.com 1.10,2013-03-04 17:36:00,
2013-03-04 12:51:00,37.8,21.0,29.77,North,360,2.0,-999.0,52,-99.99,,,0.00,weatherlink.com 1.10,2013-03-04 17:51:00,
2013-03-04 13:06:00,37.9,22.0,29.76,WSW,251,1.0,-999.0,53,-99.99,,,0.00,weatherlink.com 1.10,2013-03-04 18:06:00,
2013-03-04 13:21:00,38.5,22.0,29.76,NNW,343,5.0,-999.0,52,-99.99,,,0.00,weatherlink.com 1.10,2013-03-04 18:21:00,
2013-03-04 13:36:00,38.3,22.0,29.75,NNW,330,4.0,-999.0,52,-99.99,,,0.00,weatherlink.com 1.10,2013-03-04 18:36:00,
2013-03-04 13:51:00,38.3,23.0,29.76,NNW,338,12.0,-999.0,54,-99.99,,,0.00,weatherlink.com 1.10,2013-03-04 18:51:00,
2013-03-04 14:06:00,38.2,22.0,29.76,West,261,2.0,-999.0,53,-99.99,,,0.00,weatherlink.com 1.10,2013-03-04 19:06:00,
2013-03-04 14:21:00,38.5,22.0,29.76,NNW,337,10.0,-999.0,52,-99.99,,,0.00,weatherlink.com 1.10,2013-03-04 19:21:00,
2013-03-04 14:36:00,38.5,23.0,29.76,NNW,329,6.0,-999.0,53,-99.99,,,0.00,weatherlink.com 1.10,2013-03-04 19:36:00,
2013-03-04 14:52:00,38.4,22.0,29.76,NW,319,1.0,-999.0,53,-99.99,,,0.00,weatherlink.com 1.10,2013-03-04 19:52:00,
2013-03-04 15:07:00,38.7,22.0,29.76,NW,311,11.0,-999.0,52,-99.99,,,0.00,weatherlink.com 1.10,2013-03-04 20:07:00,
2013-03-04 15:22:00,38.5,23.0,29.76,NNW,340,7.0,-999.0,53,-99.99,,,0.00,weatherlink.com 1.10,2013-03-04 20:22:00,
2013-03-04 15:37:00,38.3,22.0,29.76,North,355,4.0,-999.0,53,-99.99,,,0.00,weatherlink.com 1.10,2013-03-04 20:37:00,
2013-03-04 15:52:00,38.7,23.0,29.77,NNE,15,4.0,-999.0,53,-99.99,,,0.00,weatherlink.com 1.10,2013-03-04 20:52:00,
2013-03-04 16:07:00,38.2,23.0,29.77,North,350,9.0,-999.0,54,-99.99,,,0.00,weatherlink.com 1.10,2013-03-04 21:07:00,
2013-03-04 16:22:00,37.8,22.0,29.77,NW,312,6.0,-999.0,54,-99.99,,,0.00,weatherlink.com 1.10,2013-03-04 21:22:00,
2013-03-04 16:37:00,36.7,22.0,29.78,North,355,10.0,-999.0,56,-99.99,,,0.00,weatherlink.com 1.10,2013-03-04 21:37:00,
2013-03-04 16:52:00,36.1,22.0,29.79,West,271,7.0,-999.0,57,-99.99,,,0.00,weatherlink.com 1.10,2013-03-04 21:52:00,
2013-03-04 17:07:00,35.8,22.0,29.79,WNW,303,0.0,-999.0,57,-99.99,,,0.00,weatherlink.com 1.10,2013-03-04 22:07:00,
2013-03-04 17:22:00,35.5,21.0,29.81,NNW,335,9.0,-999.0,57,-99.99,,,0.00,weatherlink.com 1.10,2013-03-04 22:22:00,
2013-03-04 17:37:00,35.1,21.0,29.82,North,355,2.0,-999.0,58,-99.99,,,0.00,weatherlink.com 1.10,2013-03-04 22:37:00,
2013-03-04 17:52:00,34.7,22.0,29.82,NNW,341,2.0,-999.0,59,-99.99,,,0.00,weatherlink.com 1.10,2013-03-04 22:52:00,
2013-03-04 18:08:00,34.4,21.0,29.82,NW,323,1.0,-999.0,59,-99.99,,,0.00,weatherlink.com 1.10,2013-03-04 23:08:00,
2013-03-04 18:23:00,33.9,21.0,29.83,NNW,347,4.0,-999.0,59,-99.99,,,0.00,weatherlink.com 1.10,2013-03-04 23:23:00,
2013-03-04 18:38:00,33.5,21.0,29.84,NW,325,6.0,-999.0,61,-99.99,,,0.00,weatherlink.com 1.10,2013-03-04 23:38:00,
2013-03-04 18:53:00,33.0,21.0,29.84,NNW,332,2.0,-999.0,61,-99.99,,,0.00,weatherlink.com 1.10,2013-03-04 23:53:00,
2013-03-04 19:08:00,32.5,21.0,29.84,NNW,337,5.0,-999.0,62,-99.99,,,0.00,weatherlink.com 1.10,2013-03-05 00:08:00,
2013-03-04 19:23:00,32.2,21.0,29.84,North,5,8.0,-999.0,63,-99.99,,,0.00,weatherlink.com 1.10,2013-03-05 00:23:00,
2013-03-04 19:38:00,31.9,21.0,29.84,NNW,344,4.0,-999.0,64,-99.99,,,0.00,weatherlink.com 1.10,2013-03-05 00:38:00,
2013-03-04 19:53:00,31.6,21.0,29.85,NNW,329,4.0,-999.0,65,-99.99,,,0.00,weatherlink.com 1.10,2013-03-05 00:53:00,
2013-03-04 20:08:00,31.5,21.0,29.86,NNW,338,2.0,-999.0,65,-99.99,,,0.00,weatherlink.com 1.10,2013-03-05 01:08:00,
2013-03-04 20:23:00,31.2,21.0,29.86,NW,311,4.0,-999.0,66,-99.99,,,0.00,weatherlink.com 1.10,2013-03-05 01:23:00,
2013-03-04 20:38:00,31.2,21.0,29.87,NNW,348,6.0,-999.0,65,-99.99,,,0.00,weatherlink.com 1.10,2013-03-05 01:38:00,
2013-03-04 20:53:00,31.1,21.0,29.88,NW,313,1.0,-999.0,65,-99.99,,,0.00,weatherlink.com 1.10,2013-03-05 01:53:00,
2013-03-04 21:09:00,31.0,21.0,29.88,North,355,2.0,-999.0,66,-99.99,,,0.00,weatherlink.com 1.10,2013-03-05 02:09:00,
2013-03-04 21:24:00,31.1,21.0,29.89,NW,317,2.0,-999.0,66,-99.99,,,0.00,weatherlink.com 1.10,2013-03-05 02:24:00,
2013-03-04 21:39:00,31.2,21.0,29.89,NW,325,6.0,-999.0,65,-99.99,,,0.00,weatherlink.com 1.10,2013-03-05 02:39:00,
2013-03-04 21:54:00,31.3,21.0,29.90,NNW,332,5.0,-999.0,65,-99.99,,,0.00,weatherlink.com 1.10,2013-03-05 02:54:00,
2013-03-04 22:09:00,31.4,21.0,29.89,NNW,340,4.0,-999.0,65,-99.99,,,0.00,weatherlink.com 1.10,2013-03-05 03:09:00,